QPF
0.00 0.00 0.00 0.00 0.00 0.00 0.00 0.00 0.00 0.00 0.00 0.00 0.00 0.00 0.00 0.00 0.00 0.00 0.00 0.00 0.00 0.00 0.00 0.00 0.00 0.00 0.00 0.00 0.00 0.00 0.00 0.00 0.00 0.00 0.00 0.00 0.00 0.00 0.01 0.01 0.01 0.01 0.00 0.00 0.00 0.00 0.00 0.00 0.00
0.00 0.00 0.00 0.00 0.00 0.00 0.00 0.00 0.00 0.00 0.00 0.00 0.00 0.00 0.00 0.00 0.00 0.00 0.00 0.00 0.00 0.00 0.00 0.00 0.00 0.00 0.00 0.00 0.00 0.00 0.00 0.00 0.00 0.00 0.00 0.00 0.00 0.00 0.00 0.00 0.00 0.01 0.00 0.00 0.00 0.00 0.00 0.00 0.00
0.00 0.00 0.00 0.00 0.00 0.00 0.00 0.00 0.00 0.00 0.00 0.00 0.00 0.00 0.00 0.00 0.00 0.00 0.00 0.00 0.00 0.00 0.00 0.00 0.00 0.00 0.00 0.00 0.00 0.00 0.00 0.00 0.00 0.00 0.00 0.00 0.00 0.00 0.00 0.00 0.00 0.00 0.00 0.00 0.00 0.00 0.00 0.00 0.00
0.00 0.00 0.00 0.00 0.00 0.00 0.00 0.00 0.00 0.00 0.00 0.00 0.00 0.00 0.00 0.00 0.00 0.00 0.00 0.00 0.00 0.00 0.00 0.00 0.00 0.00 0.00 0.00 0.00 0.00 0.00 0.00 0.00 0.00 0.00 0.00 0.00 0.00 0.00 0.00 0.00 0.00 0.00 0.00 0.00 0.00 0.00 0.00 0.00
0.00 0.00 0.00 0.00 0.00 0.00 0.00 0.00 0.00 0.00 0.00 0.00 0.00 0.00 0.00 0.00 0.00 0.00 0.00 0.00 0.00 0.00 0.00 0.00 0.00 0.00 0.00 0.00 0.00 0.00 0.00 0.00 0.00 0.00 0.00 0.00 0.00 0.00 0.00 0.00 0.00 0.01 0.00 0.00 0.00 0.00 0.00 0.00 0.00
0.00 0.00 0.00 0.00 0.00 0.00 0.00 0.00 0.00 0.00 0.00 0.00 0.00 0.00 0.00 0.00 0.00 0.00 0.00 0.00 0.00 0.00 0.00 0.00 0.00 0.00 0.00 0.00 0.00 0.00 0.00 0.00 0.00 0.00 0.00 0.00 0.00 0.00 0.00 0.01 0.01 0.01 0.01 0.00 0.00 0.00 0.00 0.00 0.00
0.00 0.00 0.00 0.00 0.00 0.00 0.00 0.00 0.00 0.00 0.00 0.00 0.00 0.00 0.00 0.00 0.00 0.00 0.00 0.00 0.00 0.00 0.00 0.00 0.00 0.00 0.00 0.00 0.00 0.00 0.00 0.00 0.00 0.00 0.00 0.00 0.00 0.00 0.00 0.01 0.02 0.02 0.01 0.01 0.00 0.00 0.00 0.00 0.00
0.00 0.00 0.00 0.00 0.00 0.00 0.00 0.00 0.00 0.00 0.00 0.00 0.00 0.00 0.00 0.00 0.00 0.00 0.00 0.00 0.00 0.00 0.00 0.00 0.00 0.00 0.00 0.00 0.00 0.00 0.00 0.00 0.00 0.00 0.00 0.00 0.00 0.00 0.00 0.01 0.01 0.01 0.01 0.01 0.00 0.00 0.00 0.00 0.00
0.00 0.00 0.00 0.00 0.00 0.00 0.00 0.00 0.00 0.00 0.00 0.00 0.00 0.00 0.00 0.00 0.00 0.00 0.00 0.00 0.00 0.00 0.00 0.00 0.00 0.00 0.00 0.00 0.00 0.00 0.00 0.00 0.00 0.00 0.00 0.00 0.00 0.00 0.00 0.01 0.01 0.00 0.00 0.01 0.00 0.00 0.00 0.00 0.00
0.00 0.00 0.00 0.00 0.00 0.00 0.00 0.00 0.00 0.00 0.00 0.00 0.00 0.00 0.00 0.00 0.00 0.00 0.00 0.00 0.00 0.00 0.00 0.00 0.00 0.00 0.00 0.00 0.00 0.00 0.00 0.00 0.00 0.00 0.00 0.00 0.00 0.01 0.01 0.01 0.00 0.00 0.00 0.00 0.00 0.00 0.00 0.00 0.00
0.00 0.00 0.00 0.00 0.00 0.00 0.00 0.00 0.00 0.00 0.00 0.00 0.00 0.00 0.00 0.00 0.00 0.00 0.00 0.00 0.00 0.00 0.00 0.00 0.00 0.00 0.00 0.00 0.00 0.00 0.00 0.00 0.00 0.00 0.00 0.00 0.00 0.00 0.00 0.01 0.01 0.01 0.01 0.01 0.01 0.00 0.00 0.00 0.00
0.00 0.00 0.00 0.00 0.00 0.00 0.00 0.00 0.00 0.00 0.00 0.00 0.00 0.00 0.00 0.00 0.00 0.00 0.00 0.00 0.00 0.00 0.00 0.00 0.00 0.00 0.00 0.00 0.00 0.00 0.00 0.00 0.00 0.00 0.00 0.00 0.01 0.00 0.01 0.02 0.02 0.02 0.02 0.01 0.01 0.00 0.00 0.00 0.00
0.00 0.00 0.00 0.00 0.00 0.00 0.00 0.00 0.00 0.00 0.01 0.00 0.00 0.00 0.00 0.00 0.00 0.00 0.00 0.00 0.00 0.00 0.00 0.00 0.00 0.00 0.00 0.00 0.00 0.00 0.00 0.00 0.00 0.00 0.00 0.00 0.01 0.00 0.01 0.02 0.02 0.02 0.01 0.01 0.01 0.00 0.00 0.00 0.00
0.00 0.00 0.00 0.00 0.00 0.00 0.00 0.00 0.00 0.00 0.00 0.00 0.00 0.00 0.00 0.00 0.00 0.00 0.00 0.00 0.00 0.00 0.00 0.00 0.00 0.00 0.00 0.00 0.00 0.00 0.00 0.00 0.00 0.00 0.00 0.00 0.01 0.01 0.02 0.02 0.03 0.03 0.03 0.02 0.02 0.01 0.01 0.01 0.00
0.00 0.00 0.00 0.00 0.00 0.00 0.00 0.00 0.00 0.00 0.00 0.00 0.00 0.00 0.00 0.00 0.00 0.00 0.00 0.00 0.00 0.00 0.00 0.00 0.00 0.00 0.00 0.00 0.00 0.00 0.00 0.00 0.00 0.01 0.01 0.01 0.01 0.02 0.04 0.05 0.06 0.06 0.05 0.04 0.04 0.03 0.02 0.02 0.02
0.00 0.00 0.00 0.00 0.00 0.00 0.00 0.00 0.00 0.00 0.00 0.00 0.00 0.00 0.00 0.00 0.00 0.00 0.00 0.00 0.00 0.00 0.00 0.00 0.00 0.00 0.00 0.00 0.00 0.00 0.01 0.01 0.01 0.02 0.02 0.02 0.04 0.06 0.09 0.10 0.11 0.11 0.10 0.10 0.10 0.10 0.08 0.06 0.04
0.00 0.00 0.00 0.00 0.00 0.00 0.00 0.00 0.00 0.00 0.00 0.00 0.00 0.00 0.00 0.00 0.00 0.00 0.00 0.00 0.00 0.00 0.00 0.00 0.00 0.00 0.00 0.01 0.01 0.01 0.01 0.02 0.03 0.04 0.06 0.07 0.10 0.14 0.18 0.20 0.20 0.19 0.17 0.17 0.16 0.15 0.12 0.10 0.08
0.00 0.00 0.00 0.00 0.00 0.00 0.00 0.00 0.00 0.00 0.00 0.00 0.00 0.00 0.00 0.00 0.00 0.00 0.00 0.00 0.00 0.00 0.00 0.00 0.00 0.01 0.02 0.03 0.04 0.05 0.07 0.08 0.10 0.11 0.16 0.22 0.27 0.31 0.33 0.32 0.29 0.25 0.22 0.21 0.20 0.18 0.16 0.13 0.10
0.00 0.00 0.00 0.00 0.00 0.00 0.00 0.00 0.00 0.00 0.00 0.00 0.00 0.00 0.00 0.00 0.00 0.00 0.00 0.00 0.00 0.00 0.00 0.01 0.01 0.02 0.05 0.10 0.15 0.23 0.29 0.29 0.34 0.42 0.50 0.53 0.53 0.51 0.48 0.45 0.42 0.37 0.33 0.29 0.23 0.18 0.14 0.12 0.10
0.00 0.00 0.00 0.00 0.00 0.00 0.00 0.00 0.00 0.00 0.00 0.00 0.00 0.00 0.00 0.00 0.00 0.00 0.00 0.00 0.00 0.00 0.00 0.02 0.02 0.04 0.08 0.19 0.32 0.45 0.56 0.62 0.72 0.75 0.74 0.72 0.72 0.70 0.66 0.63 0.58 0.50 0.42 0.35 0.27 0.20 0.14 0.10 0.07
0.00 0.00 0.00 0.00 0.00 0.00 0.00 0.00 0.00 0.00 0.00 0.00 0.00 0.00 0.00 0.00 0.00 0.00 0.00 0.00 0.00 0.00 0.00 0.02 0.04 0.07 0.10 0.21 0.36 0.55 0.72 0.81 0.82 0.78 0.77 0.72 0.70 0.68 0.65 0.62 0.60 0.56 0.45 0.36 0.27 0.19 0.12 0.08 0.05
0.00 0.00 0.00 0.00 0.00 0.00 0.00 0.00 0.00 0.00 0.00 0.00 0.00 0.00 0.00 0.00 0.00 0.00 0.00 0.00 0.00 0.00 0.00 0.02 0.04 0.05 0.08 0.16 0.28 0.45 0.60 0.69 0.69 0.63 0.58 0.49 0.43 0.43 0.45 0.49 0.53 0.48 0.39 0.30 0.21 0.13 0.08 0.05 0.03
0.00 0.00 0.00 0.00 0.00 0.00 0.00 0.00 0.00 0.00 0.00 0.00 0.00 0.00 0.00 0.00 0.00 0.00 0.00 0.00 0.00 0.00 0.01 0.02 0.03 0.04 0.07 0.14 0.22 0.34 0.42 0.42 0.41 0.36 0.29 0.22 0.20 0.25 0.31 0.34 0.32 0.26 0.21 0.17 0.12 0.08 0.06 0.04 0.03
0.00 0.00 0.00 0.00 0.00 0.00 0.00 0.00 0.00 0.00 0.00 0.00 0.01 0.01 0.01 0.01 0.01 0.01 0.01 0.01 0.01 0.01 0.01 0.02 0.03 0.05 0.09 0.12 0.17 0.21 0.24 0.27 0.26 0.22 0.16 0.13 0.12 0.12 0.12 0.13 0.14 0.12 0.11 0.09 0.07 0.05 0.03 0.02 0.02
0.00 0.00 0.00 0.00 0.00 0.00 0.00 0.00 0.00 0.01 0.01 0.01 0.01 0.02 0.02 0.01 0.01 0.01 0.01 0.01 0.02 0.02 0.02 0.03 0.03 0.06 0.08 0.11 0.14 0.15 0.16 0.17 0.16 0.12 0.08 0.06 0.06 0.06 0.06 0.05 0.05 0.05 0.05 0.04 0.03 0.02 0.02 0.01 0.01
0.00 0.00 0.00 0.00 0.00 0.00 0.00 0.00 0.01 0.02 0.02 0.01 0.01 0.01 0.02 0.02 0.02 0.02 0.02 0.02 0.02 0.03 0.03 0.04 0.05 0.06 0.09 0.11 0.11 0.12 0.12 0.11 0.08 0.05 0.03 0.03 0.03 0.03 0.03 0.03 0.02 0.02 0.02 0.02 0.01 0.01 0.01 0.00 0.00
0.00 0.00 0.00 0.00 0.00 0.00 0.00 0.00 0.01 0.03 0.02 0.02 0.02 0.01 0.02 0.02 0.02 0.02 0.03 0.03 0.03 0.03 0.04 0.04 0.04 0.05 0.06 0.07 0.06 0.06 0.04 0.03 0.03 0.01 0.01 0.01 0.01 0.01 0.01 0.01 0.01 0.01 0.01 0.01 0.01 0.00 0.00 0.00 0.00
0.00 0.00 0.00 0.00 0.00 0.00 0.00 0.00 0.01 0.02 0.02 0.02 0.02 0.02 0.02 0.02 0.02 0.02 0.02 0.02 0.02 0.03 0.03 0.03 0.02 0.02 0.02 0.02 0.01 0.01 0.01 0.01 0.00 0.00 0.01 0.01 0.01 0.01 0.00 0.00 0.00 0.01 0.00 0.00 0.00 0.00 0.00 0.00 0.00
0.00 0.00 0.00 0.00 0.00 0.00 0.00 0.00 0.00 0.01 0.02 0.02 0.02 0.02 0.02 0.02 0.02 0.02 0.02 0.02 0.02 0.02 0.01 0.01 0.01 0.00 0.00 0.00 0.00 0.00 0.00 0.00 0.00 0.00 0.01 0.00 0.00 0.00 0.00 0.00 0.00 0.00 0.00 0.00 0.00 0.00 0.00 0.00 0.00
0.00 0.00 0.00 0.00 0.00 0.00 0.00 0.01 0.01 0.02 0.02 0.02 0.02 0.02 0.02 0.02 0.02 0.01 0.01 0.01 0.01 0.00 0.00 0.00 0.00 0.00 0.00 0.00 0.00 0.00 0.00 0.00 0.00 0.00 0.00 0.00 0.00 0.00 0.00 0.00 0.00 0.00 0.00 0.00 0.00 0.00 0.00 0.00 0.00
MSLP
1013.04 1013.37 1013.71 1013.93 1013.96 1013.77 1013.36 1012.81 1012.22 1011.71 1011.35 1011.20 1011.24 1011.42 1011.63 1011.81 1011.88 1011.83 1011.70 1011.57 1011.52 1011.63 1011.93 1012.42 1013.05 1013.70 1014.30 1014.77 1015.07 1015.22 1015.29 1015.34 1015.47 1015.71 1016.07 1016.52 1016.99 1017.41 1017.72 1017.89 1017.94 1017.90 1017.85 1017.84 1017.91 1018.06 1018.26 1018.46 1018.62
1013.16 1013.58 1013.97 1014.21 1014.22 1013.97 1013.48 1012.83 1012.14 1011.52 1011.07 1010.83 1010.79 1010.91 1011.09 1011.24 1011.31 1011.29 1011.20 1011.12 1011.15 1011.33 1011.72 1012.30 1013.02 1013.76 1014.43 1014.97 1015.34 1015.55 1015.65 1015.72 1015.84 1016.06 1016.37 1016.76 1017.16 1017.51 1017.77 1017.91 1017.95 1017.93 1017.92 1017.95 1018.06 1018.24 1018.46 1018.66 1018.79
1013.31 1013.77 1014.17 1014.39 1014.36 1014.05 1013.49 1012.78 1012.02 1011.34 1010.83 1010.54 1010.46 1010.54 1010.68 1010.82 1010.90 1010.89 1010.84 1010.82 1010.91 1011.16 1011.63 1012.29 1013.07 1013.89 1014.64 1015.25 1015.68 1015.94 1016.09 1016.18 1016.29 1016.47 1016.73 1017.04 1017.37 1017.65 1017.86 1017.97 1018.01 1018.02 1018.05 1018.14 1018.30 1018.51 1018.74 1018.92 1019.00
1013.45 1013.92 1014.29 1014.45 1014.36 1013.99 1013.39 1012.64 1011.85 1011.16 1010.64 1010.34 1010.24 1010.30 1010.44 1010.58 1010.66 1010.68 1010.67 1010.70 1010.84 1011.15 1011.67 1012.38 1013.21 1014.07 1014.87 1015.53 1016.02 1016.33 1016.51 1016.63 1016.74 1016.89 1017.10 1017.35 1017.61 1017.84 1018.00 1018.10 1018.16 1018.20 1018.28 1018.42 1018.61 1018.85 1019.07 1019.21 1019.24
1013.58 1014.00 1014.29 1014.38 1014.21 1013.78 1013.15 1012.39 1011.63 1010.96 1010.47 1010.19 1010.11 1010.18 1010.32 1010.47 1010.57 1010.62 1010.65 1010.72 1010.91 1011.26 1011.81 1012.53 1013.37 1014.25 1015.06 1015.74 1016.26 1016.60 1016.82 1016.96 1017.08 1017.23 1017.41 1017.63 1017.85 1018.04 1018.18 1018.28 1018.36 1018.44 1018.57 1018.74 1018.97 1019.20 1019.40 1019.50 1019.47
1013.67 1014.00 1014.19 1014.17 1013.92 1013.45 1012.80 1012.06 1011.33 1010.72 1010.28 1010.05 1010.01 1010.10 1010.27 1010.43 1010.56 1010.65 1010.72 1010.84 1011.05 1011.43 1011.97 1012.68 1013.49 1014.33 1015.12 1015.78 1016.30 1016.67 1016.91 1017.09 1017.24 1017.40 1017.59 1017.81 1018.01 1018.20 1018.35 1018.46 1018.56 1018.68 1018.83 1019.03 1019.26 1019.48 1019.64 1019.69 1019.61
1013.70 1013.92 1013.99 1013.87 1013.53 1013.01 1012.36 1011.66 1010.99 1010.44 1010.07 1009.88 1009.88 1010.00 1010.19 1010.38 1010.55 1010.68 1010.80 1010.95 1011.20 1011.57 1012.10 1012.75 1013.50 1014.26 1014.98 1015.60 1016.10 1016.47 1016.74 1016.96 1017.16 1017.36 1017.59 1017.83 1018.06 1018.26 1018.42 1018.55 1018.68 1018.81 1018.97 1019.17 1019.38 1019.57 1019.69 1019.70 1019.57
1013.66 1013.77 1013.72 1013.50 1013.09 1012.54 1011.89 1011.22 1010.61 1010.12 1009.79 1009.65 1009.67 1009.82 1010.03 1010.25 1010.46 1010.64 1010.80 1011.00 1011.27 1011.64 1012.12 1012.71 1013.36 1014.03 1014.66 1015.21 1015.67 1016.03 1016.33 1016.60 1016.86 1017.13 1017.42 1017.70 1017.97 1018.20 1018.38 1018.53 1018.66 1018.79 1018.94 1019.12 1019.30 1019.44 1019.52 1019.48 1019.32
1013.55 1013.56 1013.41 1013.10 1012.64 1012.07 1011.43 1010.79 1010.22 1009.77 1009.47 1009.35 1009.38 1009.53 1009.76 1010.01 1010.26 1010.49 1010.71 1010.95 1011.24 1011.60 1012.05 1012.56 1013.12 1013.68 1014.22 1014.69 1015.11 1015.47 1015.79 1016.11 1016.43 1016.78 1017.13 1017.47 1017.77 1018.03 1018.23 1018.38 1018.50 1018.62 1018.75 1018.88 1019.02 1019.12 1019.15 1019.08 1018.91
1013.37 1013.30 1013.07 1012.70 1012.21 1011.63 1011.01 1010.40 1009.84 1009.41 1009.12 1008.99 1009.02 1009.16 1009.39 1009.67 1009.96 1010.24 1010.52 1010.81 1011.13 1011.49 1011.90 1012.35 1012.82 1013.30 1013.75 1014.17 1014.55 1014.91 1015.26 1015.63 1016.01 1016.42 1016.83 1017.22 1017.55 1017.83 1018.04 1018.18 1018.28 1018.37 1018.46 1018.55 1018.64 1018.70 1018.70 1018.62 1018.45
1013.14 1013.01 1012.74 1012.34 1011.84 1011.27 1010.66 1010.06 1009.51 1009.07 1008.77 1008.62 1008.61 1008.74 1008.96 1009.26 1009.58 1009.91 1010.25 1010.59 1010.94 1011.31 1011.71 1012.12 1012.54 1012.96 1013.37 1013.75 1014.12 1014.50 1014.88 1015.29 1015.73 1016.18 1016.63 1017.05 1017.41 1017.69 1017.89 1018.01 1018.09 1018.15 1018.20 1018.25 1018.30 1018.33 1018.32 1018.24 1018.10
1012.88 1012.72 1012.44 1012.03 1011.54 1010.98 1010.38 1009.79 1009.23 1008.77 1008.44 1008.24 1008.20 1008.31 1008.52 1008.82 1009.17 1009.55 1009.93 1010.32 1010.70 1011.10 1011.50 1011.91 1012.32 1012.73 1013.13 1013.53 1013.92 1014.33 1014.75 1015.20 1015.67 1016.15 1016.61 1017.04 1017.40 1017.67 1017.86 1017.97 1018.03 1018.06 1018.09 1018.12 1018.15 1018.17 1018.16 1018.10 1017.98
1012.63 1012.47 1012.18 1011.80 1011.32 1010.78 1010.19 1009.59 1009.02 1008.53 1008.15 1007.91 1007.83 1007.90 1008.10 1008.40 1008.76 1009.16 1009.58 1009.99 1010.41 1010.83 1011.26 1011.70 1012.15 1012.61 1013.06 1013.51 1013.96 1014.41 1014.88 1015.36 1015.84 1016.33 1016.79 1017.20 1017.54 1017.81 1017.99 1018.09 1018.15 1018.18 1018.21 1018.24 1018.28 1018.31 1018.32 1018.28 1018.19
1012.43 1012.27 1012.01 1011.65 1011.19 1010.66 1010.08 1009.47 1008.87 1008.35 1007.93 1007.65 1007.53 1007.57 1007.74 1008.02 1008.38 1008.77 1009.18 1009.60 1010.03 1010.48 1010.96 1011.46 1011.99 1012.53 1013.08 1013.64 1014.17 1014.70 1015.21 1015.71 1016.20 1016.66 1017.10 1017.48 1017.80 1018.06 1018.24 1018.36 1018.44 1018.50 1018.56 1018.62 1018.69 1018.75 1018.79 1018.78 1018.73
1012.31 1012.17 1011.92 1011.59 1011.15 1010.63 1010.04 1009.42 1008.80 1008.24 1007.79 1007.47 1007.32 1007.33 1007.47 1007.71 1008.02 1008.37 1008.74 1009.13 1009.55 1010.01 1010.53 1011.11 1011.74 1012.42 1013.11 1013.79 1014.44 1015.05 1015.61 1016.12 1016.59 1017.02 1017.42 1017.76 1018.07 1018.32 1018.53 1018.69 1018.82 1018.94 1019.05 1019.17 1019.29 1019.40 1019.47 1019.51 1019.48
1012.29 1012.16 1011.94 1011.62 1011.20 1010.69 1010.09 1009.45 1008.81 1008.22 1007.74 1007.40 1007.23 1007.20 1007.29 1007.48 1007.72 1007.99 1008.28 1008.60 1008.97 1009.42 1009.96 1010.61 1011.36 1012.18 1013.02 1013.85 1014.62 1015.32 1015.93 1016.45 1016.89 1017.28 1017.62 1017.93 1018.22 1018.49 1018.73 1018.96 1019.17 1019.36 1019.56 1019.75 1019.93 1020.09 1020.22 1020.29 1020.29
1012.33 1012.22 1012.03 1011.74 1011.34 1010.83 1010.22 1009.56 1008.90 1008.30 1007.81 1007.46 1007.26 1007.21 1007.26 1007.37 1007.52 1007.67 1007.84 1008.05 1008.34 1008.74 1009.29 1009.99 1010.84 1011.79 1012.78 1013.75 1014.64 1015.42 1016.07 1016.58 1016.99 1017.32 1017.61 1017.90 1018.18 1018.47 1018.78 1019.08 1019.38 1019.67 1019.95 1020.22 1020.47 1020.68 1020.86 1020.96 1021.00
1012.42 1012.34 1012.18 1011.91 1011.53 1011.03 1010.42 1009.76 1009.09 1008.49 1008.00 1007.66 1007.46 1007.39 1007.40 1007.43 1007.47 1007.49 1007.52 1007.58 1007.75 1008.07 1008.59 1009.32 1010.24 1011.30 1012.41 1013.50 1014.49 1015.32 1015.99 1016.49 1016.85 1017.14 1017.39 1017.64 1017.93 1018.26 1018.63 1019.02 1019.41 1019.80 1020.16 1020.50 1020.81 1021.07 1021.28 1021.42 1021.49
1012.48 1012.44 1012.34 1012.11 1011.76 1011.28 1010.68 1010.02 1009.37 1008.79 1008.33 1008.02 1007.85 1007.78 1007.76 1007.73 1007.67 1007.55 1007.42 1007.33 1007.35 1007.56 1008.02 1008.73 1009.68 1010.80 1011.99 1013.16 1014.21 1015.08 1015.75 1016.22 1016.55 1016.78 1017.00 1017.24 1017.54 1017.91 1018.34 1018.81 1019.29 1019.76 1020.19 1020.58 1020.93 1021.22 1021.46 1021.63 1021.72
1012.47 1012.50 1012.46 1012.29 1011.99 1011.53 1010.97 1010.34 1009.73 1009.20 1008.80 1008.55 1008.43 1008.40 1008.37 1008.31 1008.16 1007.93 1007.65 1007.40 1007.28 1007.36 1007.71 1008.37 1009.30 1010.43 1011.65 1012.85 1013.93 1014.81 1015.46 1015.90 1016.19 1016.39 1016.57 1016.81 1017.13 1017.54 1018.03 1018.56 1019.11 1019.64 1020.11 1020.53 1020.90 1021.20 1021.45 1021.64 1021.75
1012.34 1012.46 1012.49 1012.41 1012.16 1011.77 1011.25 1010.68 1010.14 1009.69 1009.38 1009.23 1009.20 1009.24 1009.26 1009.20 1009.01 1008.69 1008.30 1007.91 1007.64 1007.58 1007.82 1008.38 1009.24 1010.33 1011.52 1012.70 1013.76 1014.62 1015.25 1015.66 1015.91 1016.09 1016.27 1016.51 1016.85 1017.30 1017.83 1018.41 1019.00 1019.55 1020.03 1020.46 1020.81 1021.11 1021.35 1021.54 1021.66
1012.08 1012.29 1012.42 1012.42 1012.25 1011.93 1011.49 1011.01 1010.56 1010.23 1010.05 1010.03 1010.13 1010.28 1010.38 1010.37 1010.18 1009.83 1009.35 1008.86 1008.46 1008.26 1008.37 1008.80 1009.56 1010.56 1011.68 1012.80 1013.80 1014.62 1015.22 1015.61 1015.85 1016.02 1016.20 1016.45 1016.82 1017.30 1017.86 1018.46 1019.05 1019.60 1020.07 1020.46 1020.79 1021.05 1021.27 1021.45 1021.58
1011.71 1012.00 1012.22 1012.30 1012.23 1011.99 1011.66 1011.28 1010.96 1010.76 1010.74 1010.88 1011.14 1011.43 1011.66 1011.73 1011.59 1011.24 1010.73 1010.17 1009.67 1009.35 1009.32 1009.62 1010.24 1011.11 1012.12 1013.15 1014.09 1014.85 1015.42 1015.79 1016.03 1016.21 1016.41 1016.69 1017.08 1017.58 1018.15 1018.75 1019.33 1019.84 1020.27 1020.62 1020.89 1021.10 1021.29 1021.44 1021.56
1011.26 1011.61 1011.90 1012.06 1012.07 1011.94 1011.71 1011.46 1011.28 1011.25 1011.40 1011.72 1012.15 1012.60 1012.97 1013.16 1013.11 1012.80 1012.30 1011.70 1011.13 1010.72 1010.56 1010.72 1011.19 1011.92 1012.80 1013.72 1014.57 1015.28 1015.82 1016.19 1016.44 1016.65 1016.88 1017.19 1017.61 1018.11 1018.68 1019.26 1019.80 1020.26 1020.63 1020.90 1021.11 1021.27 1021.41 1021.53 1021.64
1010.77 1011.16 1011.49 1011.71 1011.79 1011.75 1011.64 1011.52 1011.50 1011.63 1011.96 1012.46 1013.07 1013.69 1014.21 1014.53 1014.58 1014.35 1013.88 1013.28 1012.67 1012.19 1011.93 1011.96 1012.29 1012.88 1013.62 1014.43 1015.20 1015.85 1016.36 1016.73 1017.01 1017.25 1017.52 1017.86 1018.29 1018.79 1019.34 1019.88 1020.36 1020.76 1021.06 1021.26 1021.40 1021.51 1021.59 1021.68 1021.75
1010.30 1010.68 1011.02 1011.27 1011.41 1011.45 1011.45 1011.47 1011.59 1011.89 1012.39 1013.06 1013.83 1014.60 1015.27 1015.71 1015.87 1015.72 1015.32 1014.74 1014.13 1013.60 1013.27 1013.20 1013.41 1013.87 1014.49 1015.19 1015.88 1016.48 1016.97 1017.35 1017.65 1017.93 1018.23 1018.58 1019.02 1019.50 1020.01 1020.50 1020.92 1021.25 1021.48 1021.61 1021.69 1021.73 1021.77 1021.82 1021.86
1009.88 1010.21 1010.52 1010.78 1010.95 1011.07 1011.16 1011.30 1011.57 1012.02 1012.67 1013.48 1014.39 1015.29 1016.07 1016.62 1016.88 1016.82 1016.48 1015.96 1015.38 1014.85 1014.48 1014.35 1014.48 1014.84 1015.36 1015.97 1016.59 1017.15 1017.61 1017.99 1018.30 1018.59 1018.91 1019.27 1019.68 1020.14 1020.61 1021.03 1021.39 1021.65 1021.81 1021.89 1021.91 1021.90 1021.89 1021.90 1021.91
1009.53 1009.78 1010.04 1010.28 1010.47 1010.63 1010.81 1011.07 1011.46 1012.03 1012.80 1013.73 1014.73 1015.72 1016.59 1017.22 1017.56 1017.59 1017.34 1016.90 1016.37 1015.88 1015.53 1015.38 1015.46 1015.76 1016.22 1016.76 1017.32 1017.83 1018.27 1018.63 1018.93 1019.22 1019.52 1019.86 1020.25 1020.66 1021.07 1021.44 1021.73 1021.93 1022.03 1022.06 1022.03 1021.98 1021.94 1021.91 1021.89
1009.29 1009.44 1009.63 1009.82 1010.01 1010.21 1010.46 1010.80 1011.30 1011.98 1012.83 1013.83 1014.90 1015.94 1016.86 1017.55 1017.95 1018.06 1017.90 1017.56 1017.13 1016.72 1016.43 1016.31 1016.40 1016.68 1017.10 1017.60 1018.10 1018.57 1018.96 1019.29 1019.56 1019.82 1020.08 1020.38 1020.71 1021.07 1021.42 1021.73 1021.97 1022.12 1022.18 1022.17 1022.10 1022.02 1021.94 1021.88 1021.83
1009.16 1009.22 1009.33 1009.47 1009.65 1009.87 1010.17 1010.59 1011.16 1011.91 1012.83 1013.87 1014.97 1016.03 1016.96 1017.68 1018.14 1018.32 1018.26 1018.04 1017.73 1017.44 1017.25 1017.22 1017.36 1017.65 1018.06 1018.52 1018.98 1019.40 1019.74 1020.00 1020.22 1020.42 1020.62 1020.86 1021.13 1021.42 1021.72 1021.98 1022.17 1022.29 1022.32 1022.28 1022.19 1022.08 1021.96 1021.86 1021.77
Thickness
5778 5786 5793 5794 5790 5790 5790 5799 5805 5807 5812 5818 5818 5816 5809 5805 5797 5790 5807 5816 5812 5806 5798 5787 5782 5779 5776 5774 5773 5771 5769 5766 5764 5761 5759 5756 5754 5752 5751 5749 5748 5747 5746 5746 5745 5744 5743 5742 5741
5781 5785 5787 5789 5778 5776 5787 5799 5801 5805 5812 5818 5817 5811 5806 5807 5808 5805 5808 5811 5808 5803 5795 5788 5780 5777 5774 5771 5769 5767 5765 5762 5760 5757 5755 5752 5750 5748 5747 5745 5744 5743 5742 5741 5740 5740 5739 5738 5737
5779 5782 5780 5779 5772 5775 5785 5798 5802 5811 5817 5815 5813 5813 5808 5805 5806 5806 5809 5808 5804 5799 5794 5786 5778 5774 5771 5768 5765 5763 5761 5758 5756 5753 5751 5748 5746 5744 5742 5741 5740 5739 5738 5737 5736 5735 5734 5733 5733
5776 5775 5775 5768 5768 5785 5789 5798 5805 5808 5814 5817 5814 5808 5812 5811 5811 5812 5810 5807 5802 5798 5793 5784 5776 5772 5768 5765 5762 5760 5758 5755 5753 5750 5748 5745 5743 5741 5739 5737 5737 5736 5735 5734 5732 5731 5730 5729 5729
5773 5769 5760 5760 5771 5788 5797 5802 5806 5804 5808 5812 5812 5807 5806 5812 5816 5813 5808 5806 5802 5798 5793 5784 5775 5770 5766 5763 5760 5757 5755 5752 5750 5747 5745 5742 5740 5738 5736 5734 5733 5732 5731 5730 5729 5727 5726 5725 5725
5763 5763 5751 5756 5773 5788 5796 5805 5806 5806 5812 5816 5813 5809 5810 5814 5812 5810 5809 5806 5804 5799 5794 5784 5774 5769 5765 5761 5758 5755 5752 5750 5747 5745 5742 5739 5737 5735 5732 5731 5730 5729 5728 5726 5725 5723 5722 5722 5721
5757 5755 5753 5762 5769 5779 5792 5806 5804 5806 5810 5817 5822 5810 5811 5812 5814 5813 5811 5808 5806 5800 5795 5786 5777 5770 5764 5761 5757 5754 5751 5748 5745 5742 5740 5737 5734 5732 5729 5728 5727 5726 5724 5723 5721 5720 5719 5719 5718
5763 5758 5754 5762 5764 5775 5796 5803 5809 5809 5813 5828 5825 5812 5811 5814 5816 5814 5811 5808 5805 5801 5796 5789 5782 5776 5768 5762 5757 5753 5749 5746 5743 5740 5737 5734 5732 5729 5727 5726 5724 5723 5722 5720 5719 5717 5716 5715 5715
5758 5747 5751 5763 5766 5778 5795 5797 5809 5818 5818 5821 5826 5826 5826 5824 5817 5811 5806 5803 5802 5799 5796 5790 5785 5779 5774 5768 5760 5753 5748 5744 5741 5738 5735 5732 5733 5732 5727 5726 5722 5720 5719 5717 5716 5715 5714 5713 5713
5750 5744 5757 5773 5777 5782 5790 5795 5803 5809 5810 5814 5819 5825 5825 5820 5814 5808 5805 5801 5799 5796 5794 5791 5788 5781 5775 5770 5763 5757 5752 5747 5743 5742 5737 5734 5734 5732 5729 5724 5720 5718 5716 5715 5714 5713 5712 5714 5717
5751 5750 5763 5768 5776 5780 5785 5794 5805 5804 5805 5816 5818 5821 5820 5816 5813 5811 5809 5806 5804 5799 5794 5794 5788 5782 5777 5771 5765 5760 5756 5751 5745 5743 5738 5735 5733 5730 5727 5724 5719 5716 5715 5716 5713 5713 5716 5716 5715
5749 5753 5759 5766 5775 5778 5783 5792 5799 5805 5813 5828 5831 5832 5822 5817 5817 5815 5813 5810 5808 5802 5796 5794 5789 5782 5776 5772 5767 5761 5757 5752 5748 5742 5737 5735 5731 5728 5726 5721 5721 5718 5716 5715 5715 5714 5713 5711 5710
5743 5750 5757 5764 5772 5778 5783 5789 5796 5807 5822 5829 5831 5829 5825 5822 5823 5821 5820 5816 5811 5804 5799 5795 5789 5781 5774 5769 5765 5761 5756 5752 5747 5741 5735 5732 5730 5727 5724 5720 5716 5715 5714 5712 5710 5711 5708 5707 5706
5751 5752 5756 5764 5771 5778 5778 5790 5797 5808 5822 5824 5825 5826 5827 5827 5826 5823 5819 5815 5811 5806 5800 5796 5788 5780 5771 5766 5761 5758 5753 5746 5745 5738 5734 5728 5725 5722 5719 5714 5710 5709 5707 5707 5704 5704 5701 5702 5701
5751 5745 5752 5762 5770 5778 5779 5780 5796 5812 5818 5818 5822 5825 5827 5829 5829 5826 5823 5818 5813 5807 5801 5794 5786 5779 5771 5765 5758 5754 5749 5743 5738 5732 5726 5721 5717 5713 5709 5706 5702 5700 5697 5694 5693 5692 5692 5692 5691
5743 5739 5742 5763 5770 5776 5769 5774 5802 5812 5812 5813 5819 5823 5824 5827 5829 5830 5827 5820 5815 5809 5800 5792 5786 5778 5769 5762 5756 5751 5745 5738 5732 5726 5720 5713 5709 5704 5698 5695 5692 5688 5686 5683 5682 5681 5681 5680 5680
5734 5735 5742 5756 5767 5772 5770 5777 5799 5808 5808 5808 5815 5820 5822 5824 5827 5829 5827 5821 5814 5807 5799 5790 5785 5777 5769 5760 5752 5746 5739 5732 5725 5718 5711 5705 5700 5695 5689 5684 5680 5677 5675 5672 5671 5668 5667 5666 5665
5731 5737 5738 5747 5760 5762 5764 5773 5789 5800 5802 5806 5811 5815 5817 5819 5824 5827 5825 5822 5815 5806 5798 5790 5782 5775 5767 5757 5748 5740 5734 5726 5720 5713 5705 5699 5693 5687 5682 5675 5670 5666 5664 5662 5660 5657 5654 5653 5653
5732 5732 5733 5743 5755 5753 5757 5765 5779 5791 5794 5798 5802 5806 5810 5814 5820 5822 5822 5819 5813 5805 5797 5789 5781 5773 5765 5755 5745 5736 5728 5720 5714 5708 5702 5696 5691 5684 5676 5669 5664 5659 5656 5653 5650 5647 5645 5643 5643
5720 5720 5727 5738 5746 5745 5750 5758 5775 5782 5783 5783 5786 5791 5795 5800 5806 5808 5811 5811 5808 5802 5796 5789 5781 5773 5764 5756 5746 5737 5727 5718 5711 5706 5702 5696 5689 5681 5673 5666 5660 5654 5651 5646 5643 5641 5638 5637 5634
5712 5717 5725 5729 5739 5745 5741 5750 5765 5772 5775 5775 5778 5781 5784 5785 5789 5793 5796 5799 5800 5797 5793 5787 5779 5770 5761 5752 5741 5730 5720 5712 5706 5700 5695 5691 5686 5677 5669 5663 5657 5651 5647 5642 5638 5635 5632 5629 5626
5708 5723 5724 5723 5723 5735 5737 5740 5758 5760 5759 5759 5762 5765 5767 5769 5773 5776 5778 5780 5784 5786 5786 5781 5773 5763 5754 5745 5736 5727 5718 5709 5702 5696 5689 5683 5678 5672 5664 5658 5653 5647 5643 5637 5633 5629 5627 5623 5620
5715 5727 5723 5721 5720 5722 5731 5729 5753 5751 5747 5743 5743 5745 5747 5750 5752 5755 5758 5762 5766 5770 5770 5767 5760 5752 5744 5737 5729 5720 5712 5703 5695 5687 5680 5674 5667 5661 5656 5651 5645 5640 5634 5629 5624 5620 5618 5615 5612
5717 5715 5714 5716 5718 5707 5726 5727 5740 5739 5731 5729 5728 5728 5729 5731 5734 5737 5741 5744 5747 5750 5751 5749 5743 5736 5731 5724 5716 5709 5701 5693 5685 5677 5670 5663 5656 5650 5646 5641 5635 5629 5624 5619 5614 5610 5607 5604 5600
5708 5699 5694 5696 5701 5711 5732 5725 5730 5721 5722 5719 5714 5713 5713 5714 5716 5718 5721 5724 5726 5728 5729 5727 5723 5717 5712 5707 5701 5695 5689 5682 5675 5667 5659 5652 5645 5639 5633 5628 5623 5618 5613 5608 5603 5600 5596 5592 5587
5702 5703 5696 5697 5706 5722 5720 5720 5717 5716 5713 5709 5705 5701 5698 5697 5698 5699 5701 5704 5706 5708 5708 5707 5703 5699 5694 5690 5684 5679 5673 5668 5660 5653 5647 5639 5633 5626 5620 5614 5610 5605 5600 5596 5591 5588 5583 5578 5575
5702 5704 5718 5710 5710 5712 5721 5713 5702 5706 5700 5697 5692 5689 5683 5682 5682 5682 5684 5686 5688 5689 5688 5688 5686 5682 5677 5673 5668 5662 5656 5651 5644 5637 5631 5624 5618 5611 5605 5600 5595 5590 5585 5581 5577 5573 5568 5564 5561
5713 5713 5704 5696 5688 5691 5709 5708 5708 5695 5690 5686 5681 5675 5671 5669 5668 5668 5669 5671 5672 5672 5672 5671 5669 5665 5661 5658 5653 5646 5640 5634 5628 5622 5614 5608 5601 5595 5590 5585 5579 5574 5570 5565 5562 5558 5553 5549 5545
5697 5698 5699 5702 5707 5698 5698 5711 5719 5703 5692 5680 5671 5666 5661 5657 5655 5655 5656 5657 5659 5659 5659 5656 5654 5650 5646 5641 5635 5630 5624 5618 5612 5606 5599 5592 5586 5580 5575 5570 5565 5559 5555 5550 5546 5543 5538 5534 5529
5702 5701 5698 5688 5692 5699 5701 5694 5702 5697 5686 5673 5662 5655 5651 5647 5644 5644 5645 5646 5646 5645 5643 5640 5637 5633 5628 5623 5617 5612 5606 5601 5595 5588 5582 5575 5569 5564 5558 5553 5548 5543 5538 5534 5530 5526 5521 5517 5513